"startDT [UTC]","vpos","CH4 [ppm]","stdev(CH4) [ppm]","CO2 [ppm]","stdev(CO2) [ppm]","H2O_reported [%]","stdev(H2O_reported)","CavityPressure [torr]","CavityTemp [C]","OutletValve","CH4_dry [ppm]","CO2_dry [ppm]","DasTemp [C]","EtalonTemp [C]","WarmBoxTemp [C]","MPVPosition","T_ECpre [C]","T_EC1 [C]","T_EC2 [C]","p_inlet [hPa]","p_in [hPa]","p_out [hPa]","T_inlet [C]","RH_inlet [%]","dwpt_inlet [C]","T_vent [C]","RH_vent [%]","dwpt_vent [C]","flow_vent [l min-1]","flow_inlet [l min-1]","dwpt_sample [C]","T_room [C]"
2015-08-24 00:00:00,0.0,1.94046,0.00039,384.290,0.047,1.1401,0.0048,139.999,45.000,31254.62386,1.96303,389.757,36.811,45.067,45.000,0.00,0.10,-272.73,-272.79,-17,506,-938,27.0,24.6,5.1,26.8,25.2,5.3,5.73,1.76,6.1,30.8
2015-08-24 00:01:00,0.0,1.94084,0.00033,384.342,0.102,1.1327,0.0110,139.999,45.000,31254.23881,1.96328,389.773,36.812,45.067,45.000,0.00,0.10,-272.73,-272.79,-18,507,-938,27.0,24.3,4.9,26.8,25.2,5.2,5.73,2.03,6.2,30.8
2015-08-24 00:02:00,0.0,1.94126,0.00044,384.439,0.045,1.1179,0.0080,140.000,45.000,31254.68923,1.96341,389.799,36.803,45.067,45.000,0.00,0.10,-272.72,-272.79,-17,507,-938,27.0,24.0,4.8,26.8,24.9,5.1,5.73,1.97,6.2,30.7
2015-08-24 00:03:00,0.0,1.94142,0.00038,384.332,0.067,1.1167,0.0048,139.998,45.000,31256.24147,1.96355,389.688,36.807,45.067,45.000,0.00,0.10,-272.72,-272.80,-16,507,-938,27.1,24.0,4.8,26.8,24.8,5.0,5.73,1.73,6.2,30.6
2015-08-24 00:04:00,0.0,1.94127,0.00068,384.389,0.069,1.1047,0.0119,139.998,45.000,31253.02071,1.96315,389.681,36.806,45.067,45.000,0.00,0.10,-272.72,-272.79,-17,507,-938,27.1,23.7,4.6,26.8,24.6,4.9,5.73,1.87,6.2,30.7
2015-08-24 00:05:00,0.0,1.94139,0.00041,384.343,0.046,1.1061,0.0039,139.997,45.000,31253.30656,1.96326,389.643,36.786,45.067,45.000,0.00,0.10,-272.72,-272.78,-18,507,-938,27.1,23.8,4.6,26.9,24.5,4.9,5.73,2.07,6.2,30.6
2015-08-24 00:06:00,0.0,1.94110,0.00044,384.268,0.042,1.1070,0.0081,140.000,45.000,31255.84291,1.96304,389.573,36.798,45.067,45.000,0.00,0.10,-272.72,-272.79,-18,507,-938,27.1,23.8,4.6,26.9,24.6,4.9,5.73,1.85,6.2,30.6
2015-08-24 00:07:00,0.0,1.94098,0.00050,384.288,0.052,1.0924,0.0140,139.998,45.000,31253.36105,1.96261,389.520,36.814,45.067,45.000,0.00,0.10,-272.73,-272.79,-17,507,-938,27.1,23.4,4.4,26.9,24.3,4.7,5.73,1.75,6.2,30.6
2015-08-24 00:08:00,0.0,1.94033,0.00055,384.249,0.034,1.0777,0.0132,139.998,45.000,31254.95436,1.96169,389.410,36.814,45.067,45.000,0.00,0.10,-272.73,-272.79,-17,507,-938,27.1,23.1,4.2,26.9,23.9,4.5,5.73,1.99,6.2,30.7
2015-08-24 00:09:00,0.0,1.94052,0.00043,384.146,0.066,1.0810,0.0093,139.999,45.000,31256.68515,1.96184,389.317,36.837,45.067,45.000,0.00,0.10,-272.72,-272.78,-17,507,-938,27.1,23.2,4.3,26.9,23.9,4.5,5.73,2.02,6.2,30.6
2015-08-24 00:10:00,0.0,1.94025,0.00043,384.154,0.045,1.0676,0.0105,140.000,45.000,31257.28134,1.96140,389.261,36.868,45.067,45.000,0.00,0.10,-272.72,-272.79,-18,507,-938,27.1,22.8,4.0,26.9,23.8,4.4,5.73,1.75,6.2,30.7
2015-08-24 00:11:00,0.0,1.93942,0.00037,384.248,0.062,1.0389,0.0095,139.997,45.000,31258.17304,1.95994,389.217,36.875,45.067,45.000,0.00,0.10,-272.73,-272.79,-17,507,-938,27.1,22.2,3.6,26.9,23.1,4.1,5.73,1.82,6.2,30.7
2015-08-24 00:12:00,0.0,1.93903,0.00036,384.204,0.042,1.0341,0.0061,139.998,45.000,31258.10529,1.95947,389.144,36.875,45.066,45.000,0.00,0.10,-272.72,-272.79,-16,507,-938,27.1,22.1,3.6,26.9,22.9,3.9,5.73,2.06,6.2,30.7
2015-08-24 00:13:00,0.0,1.93931,0.00047,384.181,0.027,1.0393,0.0069,140.003,45.000,31257.98325,1.95980,389.147,36.876,45.066,45.000,0.00,0.10,-272.73,-272.79,-17,507,-938,27.1,22.3,3.7,26.9,23.0,4.0,5.73,1.91,6.2,30.7
2015-08-24 00:14:00,0.0,1.93982,0.00039,384.129,0.048,1.0435,0.0096,139.998,45.000,31258.43689,1.96039,389.114,36.875,45.066,45.000,0.00,0.10,-272.72,-272.79,-18,507,-938,27.1,22.4,3.8,26.9,23.1,4.0,5.73,1.72,6.2,30.7
2015-08-24 00:15:00,0.0,1.93961,0.00047,384.199,0.108,1.0479,0.0045,139.999,45.000,31258.66051,1.96030,389.204,36.875,45.067,45.000,0.00,0.10,-272.73,-272.78,-18,507,-938,27.1,22.5,3.8,26.9,23.2,4.1,5.73,1.93,6.2,30.8
2015-08-24 00:16:00,0.0,1.93945,0.00041,384.313,0.056,1.0418,0.0132,139.999,45.000,31259.11678,1.96002,389.296,36.875,45.067,45.000,0.00,0.10,-272.72,-272.79,-17,507,-938,27.1,22.3,3.7,26.9,23.1,4.1,5.73,2.05,6.2,30.7
2015-08-24 00:17:00,0.0,1.93987,0.00049,384.305,0.051,1.0407,0.0071,140.000,45.000,31258.73162,1.96042,389.277,36.874,45.067,45.000,0.00,0.10,-272.72,-272.80,-16,507,-938,27.1,22.3,3.7,26.9,23.0,4.0,5.73,1.81,6.2,30.8
2015-08-24 00:18:00,0.0,1.93926,0.00040,384.287,0.048,1.0562,0.0039,139.998,45.000,31258.60942,1.96010,389.337,36.875,45.067,45.000,0.00,0.10,-272.72,-272.79,-17,507,-938,27.1,22.7,3.9,26.9,23.3,4.2,5.73,1.76,6.2,30.8
2015-08-24 00:19:00,0.0,1.94031,0.00071,384.360,0.053,1.0519,0.0062,139.998,45.000,31258.70779,1.96104,389.388,36.875,45.067,45.000,0.00,0.10,-272.73,-272.78,-18,507,-938,27.1,22.5,3.9,26.9,23.3,4.2,5.73,2.02,6.2,30.8
2015-08-24 00:20:00,0.0,1.94026,0.00049,384.386,0.049,1.0518,0.0026,139.999,45.000,31259.67213,1.96103,389.418,36.875,45.067,45.000,0.00,0.10,-272.72,-272.79,-18,507,-938,27.1,22.5,3.9,26.9,23.3,4.2,5.73,1.99,6.2,30.7
2015-08-24 00:21:00,0.0,1.94036,0.00035,384.321,0.060,1.0571,0.0046,139.999,45.000,31260.36401,1.96125,389.374,36.876,45.067,45.000,0.00,0.10,-272.73,-272.80,-17,507,-938,27.1,22.7,3.9,26.9,23.3,4.2,5.73,1.74,6.2,30.7
2015-08-24 00:22:00,0.0,1.94043,0.00029,384.342,0.062,1.0609,0.0048,139.998,45.000,31259.55316,1.96138,389.417,36.875,45.067,45.000,0.00,0.10,-272.73,-272.79,-17,507,-938,27.1,22.8,4.0,26.9,23.5,4.3,5.73,1.83,6.2,30.7
2015-08-24 00:23:00,0.0,1.94039,0.00034,384.407,0.039,1.0652,0.0042,139.997,45.000,31259.42063,1.96143,389.502,36.875,45.067,45.000,0.00,0.10,-272.73,-272.79,-17,507,-938,27.1,22.9,4.1,26.9,23.5,4.3,5.73,2.06,6.2,30.7
2015-08-24 00:24:00,0.0,1.94038,0.00053,384.346,0.052,1.0732,0.0062,139.998,45.000,31259.97431,1.96163,389.482,36.872,45.067,45.000,0.00,0.10,-272.73,-272.80,-18,507,-938,27.1,23.0,4.2,26.9,23.7,4.4,5.73,1.91,6.2,30.8
2015-08-24 00:25:00,0.0,1.94011,0.00028,384.364,0.032,1.0756,0.0037,139.998,45.000,31262.35368,1.96138,389.512,36.875,45.067,45.000,0.00,0.10,-272.72,-272.79,-17,507,-938,27.1,23.1,4.2,26.9,23.8,4.5,5.73,1.72,6.2,30.7
2015-08-24 00:26:00,0.0,1.94000,0.00035,384.321,0.047,1.0846,0.0067,140.000,45.000,31263.04899,1.96142,389.511,36.870,45.067,45.000,0.00,0.10,-272.72,-272.78,-16,507,-938,27.1,23.3,4.4,26.9,23.9,4.5,5.73,1.92,6.2,30.8
2015-08-24 00:27:00,0.0,1.93996,0.00039,384.355,0.031,1.0901,0.0038,139.998,45.000,31261.48874,1.96150,389.576,36.870,45.067,45.000,0.00,0.10,-272.73,-272.79,-17,507,-938,27.1,23.4,4.4,26.9,24.1,4.6,5.73,2.06,6.2,30.8
2015-08-24 00:28:00,0.0,1.94008,0.00042,384.403,0.045,1.0876,0.0047,139.999,45.000,31261.11522,1.96158,389.610,36.875,45.067,45.000,0.00,0.10,-272.72,-272.79,-17,507,-938,27.1,23.3,4.4,26.9,24.0,4.6,5.73,1.83,6.2,30.8
2015-08-24 00:29:00,0.0,1.94024,0.00044,384.379,0.032,1.0822,0.0041,140.001,45.000,31264.29169,1.96165,389.561,36.875,45.067,45.000,0.00,0.10,-272.72,-272.79,-18,507,-938,27.1,23.2,4.3,26.9,23.9,4.6,5.73,1.75,6.2,30.8
2015-08-24 00:30:00,0.0,1.93996,0.00037,384.284,0.071,1.0936,0.0069,139.998,45.000,31266.12645,1.96161,389.520,36.875,45.067,45.000,0.00,0.10,-272.73,-272.79,-17,507,-939,27.1,23.5,4.5,26.9,24.1,4.7,5.73,1.98,6.2,30.9
2015-08-24 00:31:00,0.0,1.94003,0.00032,384.310,0.047,1.0934,0.0043,139.999,45.000,31265.42383,1.96164,389.544,36.877,45.067,45.000,0.00,0.10,-272.72,-272.80,-16,507,-939,27.1,23.4,4.5,26.9,24.2,4.7,5.73,2.03,6.2,30.8
2015-08-24 00:32:00,0.0,1.94026,0.00037,384.432,0.027,1.0774,0.0032,139.999,45.000,31265.63714,1.96158,389.590,36.875,45.067,45.000,0.00,0.10,-272.71,-272.79,-17,507,-939,27.1,23.1,4.2,26.9,23.9,4.5,5.73,1.77,6.2,30.9
2015-08-24 00:33:00,0.0,1.94012,0.00032,384.427,0.058,1.0766,0.0041,140.002,45.000,31267.11004,1.96137,389.582,36.880,45.067,45.000,0.00,0.10,-272.72,-272.78,-18,507,-939,27.1,23.1,4.2,26.9,23.8,4.5,5.73,1.79,6.2,30.8
2015-08-24 00:34:00,0.0,1.94020,0.00046,384.265,0.043,1.0881,0.0034,139.998,45.000,31265.90168,1.96174,389.475,36.881,45.067,45.000,0.00,0.10,-272.73,-272.79,-18,507,-939,27.1,23.3,4.4,26.9,24.0,4.6,5.73,2.03,6.2,30.8
2015-08-24 00:35:00,0.0,1.94046,0.00051,384.283,0.062,1.0853,0.0034,139.998,45.000,31265.74421,1.96190,389.478,36.876,45.067,45.000,0.00,0.10,-272.72,-272.79,-17,507,-939,27.1,23.3,4.4,26.9,24.0,4.6,5.73,1.98,6.2,30.7
2015-08-24 00:36:00,0.0,1.94041,0.00051,384.134,0.093,1.0949,0.0058,139.998,45.000,31266.05608,1.96208,389.374,36.878,45.067,45.000,0.00,0.10,-272.72,-272.79,-17,507,-939,27.1,23.5,4.5,26.9,24.1,4.7,5.73,1.74,6.2,30.8
2015-08-24 00:37:00,0.0,1.94025,0.00037,384.176,0.065,1.0941,0.0036,139.999,45.000,31267.83088,1.96189,389.415,36.875,45.067,45.000,0.00,0.10,-272.73,-272.79,-17,507,-939,27.1,23.5,4.5,26.9,24.2,4.7,5.73,1.83,6.2,30.8
2015-08-24 00:38:00,0.0,1.94035,0.00048,384.176,0.039,1.0967,0.0034,139.999,45.000,31267.52601,1.96205,389.424,36.877,45.067,45.000,0.00,0.10,-272.73,-272.79,-18,507,-939,27.1,23.5,4.5,26.9,24.2,4.8,5.73,2.06,6.2,30.8
2015-08-24 00:39:00,0.0,1.94046,0.00040,384.168,0.059,1.0929,0.0037,139.999,45.000,31268.35683,1.96205,389.402,36.882,45.067,45.000,0.00,0.10,-272.72,-272.79,-18,507,-939,27.1,23.5,4.5,26.9,24.1,4.7,5.73,1.94,6.2,30.8
2015-08-24 00:40:00,0.0,1.94023,0.00036,384.019,0.054,1.1017,0.0039,139.999,45.000,31273.09017,1.96203,389.293,36.892,45.067,45.000,0.00,0.10,-272.72,-272.79,-17,507,-939,27.1,23.6,4.6,26.9,24.3,4.8,5.73,1.73,6.2,30.8
2015-08-24 00:41:00,0.0,1.94037,0.00048,384.067,0.063,1.0961,0.0063,139.997,45.000,31270.74781,1.96203,389.314,36.909,45.067,45.000,0.00,0.10,-272.73,-272.79,-17,507,-939,27.1,23.5,4.5,26.9,24.3,4.8,5.73,1.88,6.2,30.8
2015-08-24 00:42:00,0.0,1.94162,0.00038,383.968,0.038,1.0749,0.0168,140.000,45.000,31270.19125,1.96288,389.113,36.933,45.067,45.000,0.00,0.10,-272.72,-272.79,-17,507,-939,27.1,22.9,4.2,26.9,23.9,4.5,5.73,2.06,6.2,30.9
2015-08-24 00:43:00,0.0,1.94153,0.00053,383.821,0.070,1.0770,0.0061,140.000,45.000,31271.21703,1.96282,388.969,36.933,45.067,45.000,0.00,0.10,-272.72,-272.79,-18,507,-939,27.1,23.1,4.2,26.9,23.7,4.5,5.73,1.89,6.2,30.9
2015-08-24 00:44:00,0.0,1.94138,0.00030,383.748,0.063,1.0803,0.0033,139.998,45.000,31271.37480,1.96278,388.912,36.924,45.066,45.000,0.00,0.10,-272.72,-272.80,-18,507,-939,27.1,23.2,4.3,26.9,23.8,4.5,5.73,1.73,6.2,30.9
2015-08-24 00:45:00,0.0,1.94216,0.00068,383.661,0.067,1.0687,0.0174,139.999,45.000,31270.02859,1.96325,388.768,36.894,45.067,45.000,0.00,0.10,-272.73,-272.79,-17,507,-939,27.1,22.7,4.0,26.9,23.7,4.4,5.73,1.92,6.2,30.8
2015-08-24 00:46:00,0.0,1.94357,0.00055,383.714,0.053,1.0194,0.0106,140.001,45.000,31270.89891,1.96368,388.582,36.885,45.067,45.000,0.00,0.10,-272.72,-272.78,-17,507,-939,27.1,21.7,3.4,26.9,22.7,3.9,5.73,2.06,6.2,30.8
2015-08-24 00:47:00,0.0,1.94412,0.00043,383.698,0.045,1.0001,0.0046,139.997,45.000,31269.24608,1.96388,388.464,36.880,45.067,45.000,0.00,0.10,-272.72,-272.80,-17,507,-939,27.1,21.3,3.1,26.9,22.1,3.5,5.73,1.85,6.2,30.8
2015-08-24 00:48:00,0.0,1.94420,0.00038,383.578,0.127,1.0068,0.0100,139.999,45.000,31269.55640,1.96408,388.379,36.876,45.067,45.000,0.00,0.10,-272.73,-272.79,-18,507,-939,27.1,21.6,3.3,26.9,22.1,3.5,5.73,1.74,6.2,30.9
2015-08-24 00:49:00,0.0,1.94397,0.00035,383.466,0.084,1.0124,0.0079,139.999,45.000,31271.51395,1.96398,388.290,36.879,45.067,45.000,0.00,0.10,-272.72,-272.78,-18,507,-939,27.1,21.6,3.3,26.9,22.4,3.6,5.73,1.96,6.2,30.9
2015-08-24 00:50:00,0.0,1.94431,0.00050,383.625,0.069,0.9973,0.0091,139.997,45.000,31269.52414,1.96400,388.377,36.879,45.067,45.000,0.00,0.10,-272.72,-272.79,-17,507,-939,27.1,21.2,3.0,26.9,22.0,3.4,5.73,2.05,6.2,30.9
2015-08-24 00:51:00,0.0,1.94451,0.00037,383.593,0.059,0.9933,0.0034,140.001,45.000,31270.05779,1.96414,388.324,36.876,45.067,45.000,0.00,0.10,-272.73,-272.79,-17,507,-939,27.1,21.2,3.1,26.9,21.9,3.3,5.73,1.81,6.2,30.9
2015-08-24 00:52:00,0.0,1.94455,0.00040,383.571,0.062,0.9935,0.0049,140.000,45.000,31270.72805,1.96418,388.303,36.879,45.067,45.000,0.00,0.10,-272.72,-272.78,-17,507,-939,27.1,21.2,3.1,26.9,21.9,3.4,5.73,1.76,6.2,30.9
2015-08-24 00:53:00,0.0,1.94458,0.00042,383.308,0.108,1.0131,0.0066,139.999,45.000,31270.86426,1.96459,388.136,36.875,45.067,45.000,0.00,0.10,-272.72,-272.77,-18,507,-939,27.1,21.7,3.4,26.9,22.2,3.5,5.73,2.00,6.2,30.8
2015-08-24 00:54:00,0.0,1.94483,0.00033,383.537,0.120,1.0022,0.0073,139.999,45.000,31271.66735,1.96464,388.308,36.877,45.067,45.000,0.00,0.10,-272.73,-272.79,-18,507,-939,27.1,21.4,3.2,26.9,22.2,3.5,5.73,2.02,6.2,30.8
2015-08-24 00:55:00,0.0,1.94456,0.00047,383.477,0.077,1.0075,0.0044,139.999,45.000,31273.21085,1.96448,388.279,36.875,45.067,45.000,0.00,0.10,-272.72,-272.79,-17,507,-939,27.1,21.6,3.3,26.9,22.2,3.5,5.73,1.79,6.2,30.9
2015-08-24 00:56:00,0.0,1.94508,0.00052,383.117,0.105,1.0313,0.0070,140.000,45.000,31273.15426,1.96547,388.030,36.874,45.067,45.000,0.00,0.10,-272.72,-272.78,-16,507,-939,27.1,22.1,3.6,26.9,22.6,3.8,5.73,1.78,6.2,30.8
2015-08-24 00:57:00,0.0,1.94469,0.00042,383.192,0.109,1.0298,0.0046,139.998,45.000,31274.30154,1.96504,388.099,36.875,45.067,45.000,0.00,0.10,-272.73,-272.79,-17,507,-939,27.1,22.0,3.6,26.9,22.7,3.9,5.73,2.01,6.2,30.8
2015-08-24 00:58:00,0.0,1.94520,0.00036,383.136,0.093,1.0369,0.0041,139.998,45.000,31274.75710,1.96574,388.074,36.882,45.067,45.000,0.00,0.10,-272.73,-272.80,-18,507,-939,27.1,22.1,3.7,26.9,22.8,3.9,5.73,2.01,6.2,30.7
2015-08-24 00:59:00,0.0,1.94528,0.00047,383.370,0.074,1.0200,0.0032,140.000,45.000,31273.49390,1.96544,388.232,36.893,45.067,45.000,0.00,0.10,-272.72,-272.79,-18,507,-939,27.1,21.8,3.5,26.9,22.6,3.8,5.73,1.77,6.2,30.9
2015-08-24 01:00:00,0.0,1.94523,0.00044,383.260,0.064,1.0246,0.0062,139.999,45.000,31272.85977,1.96551,388.140,36.912,45.067,45.000,0.00,0.10,-272.72,-272.78,-17,507,-939,27.1,21.9,3.5,26.9,22.6,3.8,5.73,1.80,6.2,30.8
2015-08-24 01:01:00,0.0,1.94499,0.00035,383.235,0.096,1.0204,0.0069,139.998,45.000,31272.81955,1.96517,388.097,36.922,45.067,45.000,0.00,0.10,-272.74,-272.79,-17,507,-939,27.1,21.8,3.5,27.0,22.5,3.7,5.73,2.03,6.2,30.8
2015-08-24 01:02:00,0.0,1.94543,0.00046,383.101,0.088,1.0285,0.0063,139.999,45.000,31273.21477,1.96575,388.001,36.893,45.067,45.000,0.00,0.10,-272.73,-272.79,-17,507,-939,27.1,22.0,3.6,26.9,22.6,3.8,5.73,1.99,6.2,30.9
2015-08-24 01:03:00,0.0,1.94512,0.00056,383.007,0.058,1.0220,0.0085,140.000,45.000,31274.59396,1.96537,387.874,36.887,45.067,45.000,0.00,0.10,-272.71,-272.79,-18,507,-939,27.1,21.8,3.4,27.0,22.6,3.8,5.73,1.76,6.2,30.8
2015-08-24 01:04:00,0.0,1.94515,0.00039,382.757,0.196,1.0234,0.0085,140.001,45.000,31275.69169,1.96538,387.630,36.878,45.067,45.000,0.00,0.10,-272.72,-272.79,-18,507,-939,27.1,21.9,3.5,27.0,22.5,3.7,5.73,1.80,6.2,30.8
2015-08-24 01:05:00,0.0,1.94531,0.00039,382.591,0.079,1.0202,0.0115,139.997,45.000,31275.86415,1.96552,387.446,36.882,45.067,45.000,0.00,0.10,-272.73,-272.79,-17,507,-939,27.2,21.7,3.4,27.0,22.6,3.8,5.73,2.04,6.2,30.8
2015-08-24 01:06:00,0.0,1.94553,0.00051,382.458,0.074,1.0030,0.0094,139.998,45.000,31274.97924,1.96532,387.223,36.881,45.067,45.000,0.00,0.10,-272.72,-272.78,-17,507,-940,27.2,21.4,3.2,27.0,22.1,3.5,5.73,1.99,6.2,30.8
2015-08-24 01:07:00,0.0,1.94530,0.00060,382.393,0.130,0.9946,0.0150,139.999,45.000,31274.75669,1.96502,387.124,36.902,45.067,45.000,0.00,0.10,-272.72,-272.79,-17,507,-940,27.2,21.1,3.0,27.0,22.0,3.4,5.73,1.76,6.2,30.8
2015-08-24 01:08:00,0.0,1.94507,0.00055,382.286,0.129,0.9724,0.0084,139.997,45.000,31274.14223,1.96424,386.902,36.906,45.067,45.000,0.00,0.10,-272.73,-272.79,-17,507,-940,27.2,20.7,2.7,27.0,21.5,3.1,5.73,1.81,6.2,30.8
2015-08-24 01:09:00,0.0,1.94487,0.00038,382.114,0.170,0.9811,0.0149,139.998,45.000,31276.19874,1.96426,386.767,36.929,45.067,45.000,0.00,0.10,-272.73,-272.79,-18,507,-940,27.2,20.9,2.9,27.0,21.6,3.2,5.73,2.03,6.2,30.8
2015-08-24 01:10:00,0.0,1.94489,0.00041,382.352,0.096,0.9519,0.0099,140.000,45.000,31275.21776,1.96373,386.863,36.937,45.066,45.000,0.00,0.10,-272.72,-272.79,-18,507,-940,27.2,20.2,2.4,27.0,21.1,2.9,5.73,1.99,6.2,30.9
2015-08-24 01:11:00,0.0,1.94514,0.00048,382.290,0.107,0.9565,0.0082,139.998,45.000,31276.05348,1.96399,386.826,36.935,45.066,45.000,0.00,0.10,-272.72,-272.80,-17,507,-940,27.2,20.4,2.5,27.0,21.0,2.8,5.73,1.76,6.2,30.8
2015-08-24 01:12:00,0.0,1.94523,0.00044,382.240,0.091,0.9595,0.0069,139.999,45.000,31274.83871,1.96417,386.789,36.935,45.066,45.000,0.00,0.10,-272.72,-272.79,-17,507,-940,27.2,20.4,2.5,27.0,21.1,2.9,5.73,1.80,6.2,30.8
2015-08-24 01:13:00,0.0,1.94512,0.00055,382.359,0.129,0.9453,0.0065,139.999,45.000,31274.95078,1.96375,386.843,36.933,45.067,45.000,0.00,0.10,-272.72,-272.78,-17,507,-940,27.2,20.1,2.3,27.0,20.8,2.7,5.73,2.04,6.2,30.8
2015-08-24 01:14:00,0.0,1.94473,0.00051,382.371,0.066,0.9426,0.0063,139.999,45.000,31277.23556,1.96335,386.836,36.928,45.067,45.000,0.00,0.10,-272.72,-272.79,-18,507,-940,27.2,20.0,2.3,27.0,20.7,2.6,5.73,1.98,6.2,30.8
2015-08-24 01:15:00,0.0,1.94513,0.00051,382.138,0.175,0.9561,0.0106,140.000,45.000,31277.75435,1.96400,386.671,36.938,45.067,45.000,0.00,0.10,-272.73,-272.79,-18,507,-940,27.2,20.4,2.5,27.0,21.0,2.8,5.73,1.76,6.2,30.8
2015-08-24 01:16:00,0.0,1.94486,0.00065,382.221,0.121,0.9484,0.0081,140.001,45.000,31278.17663,1.96354,386.716,36.938,45.067,45.000,0.00,0.10,-272.73,-272.79,-17,507,-940,27.2,20.2,2.4,27.0,20.9,2.7,5.73,1.81,6.2,30.9
2015-08-24 01:17:00,0.0,1.94469,0.00040,382.156,0.099,0.9563,0.0057,140.000,45.000,31277.32322,1.96359,386.690,36.938,45.067,45.000,0.00,0.10,-272.73,-272.78,-17,507,-940,27.2,20.4,2.5,27.0,21.0,2.8,5.73,2.04,6.2,30.9
2015-08-24 01:18:00,0.0,1.94448,0.00047,381.938,0.198,0.9676,0.0085,140.001,45.000,31278.10751,1.96357,386.528,36.939,45.067,45.000,0.00,0.10,-272.72,-272.79,-17,507,-940,27.2,20.6,2.7,27.0,21.2,2.9,5.73,1.99,6.2,30.8
2015-08-24 01:19:00,0.0,1.94438,0.00052,381.846,0.102,0.9757,0.0033,140.002,45.000,31277.68867,1.96368,386.465,36.940,45.067,45.000,0.00,0.10,-272.72,-272.79,-18,507,-940,27.2,20.8,2.8,27.0,21.4,3.1,5.73,1.76,6.2,30.7
2015-08-24 01:20:00,0.0,1.94439,0.00034,381.832,0.086,0.9778,0.0051,140.001,45.000,31278.20391,1.96369,386.463,36.944,45.067,45.000,0.00,0.10,-272.73,-272.78,-18,507,-940,27.2,20.8,2.8,27.0,21.5,3.1,5.73,1.80,6.2,30.7
2015-08-24 01:21:00,0.0,1.94454,0.00037,382.064,0.063,0.9649,0.0031,140.001,45.000,31277.40535,1.96358,386.638,36.946,45.067,45.000,0.00,0.10,-272.73,-272.79,-17,508,-940,27.2,20.5,2.7,27.0,21.3,3.0,5.73,2.03,6.2,30.8
2015-08-24 01:22:00,0.0,1.94459,0.00027,381.760,0.197,0.9779,0.0092,139.997,45.000,31277.49749,1.96387,386.398,36.948,45.067,45.000,0.00,0.10,-272.73,-272.79,-17,507,-940,27.2,20.9,2.9,27.0,21.4,3.1,5.73,2.00,6.2,30.9
2015-08-24 01:23:00,0.0,1.94464,0.00041,381.841,0.201,0.9782,0.0087,139.997,45.000,31277.55603,1.96395,386.469,36.950,45.067,45.000,0.00,0.10,-272.71,-272.79,-17,507,-940,27.2,20.7,2.8,27.0,21.5,3.2,5.73,1.77,6.2,30.9
2015-08-24 01:24:00,0.0,1.94471,0.00038,382.052,0.107,0.9645,0.0038,139.998,45.000,31277.94094,1.96378,386.625,36.951,45.067,45.000,0.00,0.10,-272.72,-272.79,-18,507,-940,27.2,20.5,2.7,27.0,21.2,2.9,5.73,1.79,6.2,31.0
2015-08-24 01:25:00,0.0,1.94467,0.00039,381.807,0.137,0.9807,0.0077,140.000,45.000,31276.99815,1.96399,386.453,36.971,45.067,45.000,0.00,0.10,-272.73,-272.79,-18,507,-940,27.2,20.9,2.9,27.0,21.5,3.1,5.73,2.02,6.2,30.8
2015-08-24 01:26:00,0.0,1.94486,0.00033,382.000,0.147,0.9685,0.0070,139.998,45.000,31275.76257,1.96400,386.589,36.962,45.067,45.000,0.00,0.10,-272.72,-272.79,-17,508,-940,27.2,20.6,2.7,27.0,21.4,3.0,5.73,2.01,6.2,30.8
2015-08-24 01:27:00,0.0,1.94515,0.00038,382.115,0.042,0.9611,0.0027,139.997,45.000,31277.44203,1.96408,386.672,36.966,45.067,45.000,0.00,0.10,-272.72,-272.79,-17,507,-940,27.2,20.4,2.6,27.0,21.1,2.9,5.73,1.77,6.2,30.9
2015-08-24 01:28:00,0.0,1.94498,0.00045,381.725,0.199,0.9864,0.0102,139.997,45.000,31276.36668,1.96448,386.397,36.976,45.067,45.000,0.00,0.10,-272.73,-272.79,-17,507,-940,27.2,21.0,3.0,27.0,21.5,3.2,5.73,1.79,6.2,30.9
2015-08-24 01:29:00,0.0,1.94497,0.00040,381.682,0.226,0.9881,0.0105,140.001,45.000,31278.86397,1.96448,386.374,36.998,45.067,45.000,0.00,0.10,-272.73,-272.79,-17,507,-940,27.2,21.1,3.0,27.0,21.7,3.2,5.73,2.02,6.2,30.9
2015-08-24 01:30:00,0.0,1.94484,0.00034,381.466,0.181,0.9972,0.0070,139.999,45.000,31277.71801,1.96456,386.191,37.008,45.066,45.000,0.00,0.10,-272.72,-272.79,-18,507,-940,27.2,21.2,3.1,27.0,21.9,3.4,5.73,2.01,6.2,30.9
2015-08-24 01:31:00,0.0,1.94505,0.00055,381.643,0.394,0.9857,0.0184,139.999,45.000,31279.46380,1.96449,386.309,37.012,45.066,45.000,0.00,0.10,-272.72,-272.79,-18,507,-940,27.2,20.9,2.9,27.0,21.8,3.3,5.73,1.79,6.2,30.9
2015-08-24 01:32:00,0.0,1.94528,0.00045,381.940,0.095,0.9657,0.0052,139.998,45.000,31277.98634,1.96437,386.512,37.002,45.066,45.000,0.00,0.10,-272.72,-272.79,-17,507,-940,27.2,20.5,2.6,27.0,21.2,3.0,5.73,1.77,6.2,30.9
2015-08-24 01:33:00,0.0,1.94556,0.00038,381.766,0.098,0.9752,0.0049,139.997,45.000,31277.77257,1.96480,386.391,37.001,45.067,45.000,0.00,0.10,-272.72,-272.78,-17,507,-940,27.2,20.8,2.8,27.0,21.4,3.0,5.73,2.01,6.2,30.9
2015-08-24 01:34:00,0.0,1.94577,0.00039,381.545,0.163,0.9891,0.0088,139.997,45.000,31277.19854,1.96533,386.230,37.000,45.067,45.000,0.00,0.10,-272.72,-272.79,-17,507,-940,27.2,21.0,3.0,27.0,21.6,3.2,5.73,2.02,6.2,30.8
2015-08-24 01:35:00,0.0,1.94503,0.00047,381.717,0.069,0.9774,0.0053,140.000,45.000,31279.76815,1.96437,386.345,36.999,45.067,45.000,0.00,0.10,-272.73,-272.80,-18,507,-940,27.2,20.8,2.8,27.0,21.5,3.1,5.73,1.79,6.2,30.9
2015-08-24 01:36:00,0.0,1.94541,0.00056,381.521,0.153,0.9904,0.0081,139.999,45.000,31278.43616,1.96497,386.214,37.002,45.067,45.000,0.00,0.10,-272.72,-272.79,-18,507,-940,27.2,21.0,3.0,27.0,21.6,3.2,5.73,1.77,6.2,30.9
2015-08-24 01:37:00,0.0,1.94507,0.00045,381.468,0.104,0.9912,0.0062,139.999,45.000,31279.68472,1.96463,386.163,37.002,45.067,45.000,0.00,0.10,-272.72,-272.79,-17,507,-940,27.2,21.0,3.0,27.0,21.7,3.3,5.73,2.00,6.2,30.9
2015-08-24 01:38:00,0.0,1.94511,0.00036,381.479,0.108,0.9835,0.0072,139.997,45.000,31277.97624,1.96454,386.140,37.002,45.067,45.000,0.00,0.10,-272.73,-272.79,-17,507,-940,27.2,21.0,3.0,27.0,21.6,3.2,5.73,2.03,6.2,31.0
2015-08-24 01:39:00,0.0,1.94543,0.00049,381.451,0.222,0.9859,0.0148,140.000,45.000,31278.04413,1.96492,386.117,37.001,45.067,45.000,0.00,0.10,-272.72,-272.79,-17,507,-940,27.2,20.9,2.9,27.0,21.7,3.3,5.73,1.80,6.2,30.9
2015-08-24 01:40:00,0.0,1.94530,0.00055,381.593,0.201,0.9725,0.0146,139.997,45.000,31276.11822,1.96452,386.195,36.993,45.067,45.000,0.00,0.10,-272.72,-272.78,-18,507,-940,27.2,20.6,2.7,27.0,21.4,3.1,5.73,1.76,6.2,30.8
2015-08-24 01:41:00,0.0,1.94507,0.00053,381.838,0.100,0.9564,0.0086,139.997,45.000,31276.80237,1.96397,386.368,36.986,45.067,45.000,0.00,0.10,-272.73,-272.79,-18,507,-940,27.2,20.3,2.5,27.0,21.0,2.8,5.73,1.99,6.2,30.9
2015-08-24 01:42:00,0.0,1.94478,0.00038,381.937,0.142,0.9476,0.0092,139.999,45.000,31277.86532,1.96347,386.423,36.982,45.067,45.000,0.00,0.10,-272.73,-272.79,-18,508,-940,27.2,20.0,2.3,27.0,20.8,2.7,5.73,2.03,6.2,30.9
2015-08-24 01:43:00,0.0,1.94470,0.00038,381.803,0.135,0.9572,0.0108,139.999,45.000,31278.52165,1.96355,386.337,36.994,45.067,45.000,0.00,0.10,-272.72,-272.79,-17,507,-940,27.2,20.3,2.5,27.0,20.8,2.7,5.73,1.81,6.2,30.9
2015-08-24 01:44:00,0.0,1.94470,0.00043,381.618,0.080,0.9698,0.0055,139.999,45.000,31279.02407,1.96387,386.210,36.998,45.067,45.000,0.00,0.10,-272.72,-272.79,-17,507,-940,27.2,20.6,2.7,27.1,21.2,3.0,5.73,1.76,6.2,30.8
2015-08-24 01:45:00,0.0,1.94428,0.00048,381.588,0.085,0.9689,0.0062,139.998,45.000,31279.77337,1.96340,386.177,36.999,45.067,45.000,0.00,0.10,-272.73,-272.79,-18,507,-940,27.2,20.6,2.7,27.1,21.2,3.0,5.73,1.99,6.2,30.9
2015-08-24 01:46:00,0.0,1.94449,0.00037,381.521,0.184,0.9733,0.0111,139.999,45.000,31278.80695,1.96371,386.127,36.991,45.067,45.000,0.00,0.10,-272.72,-272.79,-18,507,-940,27.2,20.6,2.7,27.1,21.3,3.1,5.73,2.03,6.2,30.9